Weather reports worldwide

Advertisment
Riga, Latvia (26422): temperature & dewpoint: 23.06.2017 12:00:00 - 29.06.2017 12:00:00 (EEST)Riga, Latvia (26422): wind speed: 23.06.2017 12:00:00 - 29.06.2017 12:00:00 (EEST)Riga, Latvia (26422): wind direction: 23.06.2017 12:00:00 - 29.06.2017 12:00:00 (EEST)Riga, Latvia (26422): reduced air pressure: 23.06.2017 12:00:00 - 29.06.2017 12:00:00 (EEST)Riga, Latvia (26422): visibility: 23.06.2017 12:00:00 - 29.06.2017 12:00:00 (EEST)
Date & Time tt [°C] td [°C] ff [km/h] ff [kn] dd ppp [hPa] vv [km]
29.06.2017 12:00:00 - - - - - - -
29.06.2017 11:00:00 - - - - - - -
29.06.2017 10:00:00 - - - - - - -
29.06.2017 09:00:00 18,0 9,3 14 8 E 1006,7 20
29.06.2017 08:00:00 - - - - - - -
29.06.2017 07:00:00 - - - - - - -
29.06.2017 06:00:00 14,6 6,6 14 8 E 1008,9 10
29.06.2017 05:00:00 - - - - - - -
29.06.2017 04:00:00 - - - - - - -
29.06.2017 03:00:00 15,1 6,6 14 8 E 1010,3 10
29.06.2017 02:00:00 - - - - - - -
29.06.2017 01:00:00 - - - - - - -
29.06.2017 00:00:00 15,7 7,9 7 4 NE 1011,4 10
28.06.2017 23:00:00 - - - - - - -
28.06.2017 22:00:00 - - - - - - -
28.06.2017 21:00:00 17,7 6,8 7 4 N 1011,1 20
28.06.2017 20:00:00 - - - - - - -
28.06.2017 19:00:00 - - - - - - -
28.06.2017 18:00:00 19,1 6,8 11 6 N 1011,9 20
28.06.2017 17:00:00 - - - - - - -
28.06.2017 16:00:00 - - - - - - -
28.06.2017 15:00:00 19,6 6,3 7 4 N 1012,9 20
28.06.2017 14:00:00 - - - - - - -
28.06.2017 13:00:00 - - - - - - -
28.06.2017 12:00:00 19,2 5,9 4 2 ENE 1013,7 20
28.06.2017 11:00:00 - - - - - - -
28.06.2017 10:00:00 - - - - - - -
28.06.2017 09:00:00 14,9 10,6 4 2 W 1013,9 10
28.06.2017 08:00:00 - - - - - - -
28.06.2017 07:00:00 - - - - - - -
28.06.2017 06:00:00 9,8 8,5 4 2 S 1013,2 10
28.06.2017 05:00:00 - - - - - - -
28.06.2017 04:00:00 - - - - - - -
28.06.2017 03:00:00 11,5 9,7 4 2 WSW 1012,9 10
28.06.2017 02:00:00 - - - - - - -
28.06.2017 01:00:00 - - - - - - -
28.06.2017 00:00:00 13,6 8,8 11 6 W 1011,8 10
27.06.2017 23:00:00 - - - - - - -
27.06.2017 22:00:00 - - - - - - -
27.06.2017 21:00:00 16,7 8,1 18 10 W 1010,9 20
27.06.2017 20:00:00 - - - - - - -
27.06.2017 19:00:00 - - - - - - -
27.06.2017 18:00:00 18,7 7,7 22 12 WSW 1009,5 20
27.06.2017 17:00:00 - - - - - - -
27.06.2017 16:00:00 - - - - - - -
27.06.2017 15:00:00 19,1 7,8 29 16 WSW 1008,4 20
27.06.2017 14:00:00 - - - - - - -
27.06.2017 13:00:00 - - - - - - -
27.06.2017 12:00:00 17,9 7,8 22 12 SSW 1007,0 20
27.06.2017 11:00:00 - - - - - - -
27.06.2017 10:00:00 - - - - - - -
27.06.2017 09:00:00 16,2 10,4 14 8 SW 1005,7 10
27.06.2017 08:00:00 - - - - - - -
27.06.2017 07:00:00 - - - - - - -
27.06.2017 06:00:00 12,5 9,8 14 8 SSW 1004,3 10
27.06.2017 05:00:00 - - - - - - -
27.06.2017 04:00:00 - - - - - - -
27.06.2017 03:00:00 12,3 10,0 14 8 SW 1003,4 10
27.06.2017 02:00:00 - - - - - - -
27.06.2017 01:00:00 - - - - - - -
27.06.2017 00:00:00 13,6 10,0 14 8 WSW 1002,8 10
26.06.2017 23:00:00 - - - - - - -
26.06.2017 22:00:00 - - - - - - -
26.06.2017 21:00:00 15,4 9,5 18 10 SW 1001,9 20
26.06.2017 20:00:00 - - - - - - -
26.06.2017 19:00:00 - - - - - - -
26.06.2017 18:00:00 16,6 7,4 25 14 SW 1001,3 20
26.06.2017 17:00:00 - - - - - - -
26.06.2017 16:00:00 - - - - - - -
26.06.2017 15:00:00 18,3 7,3 22 12 SW 1000,2 20
26.06.2017 14:00:00 - - - - - - -
26.06.2017 13:00:00 - - - - - - -
26.06.2017 12:00:00 13,8 9,4 18 10 WSW 1000,4 10
26.06.2017 11:00:00 - - - - - - -
26.06.2017 10:00:00 - - - - - - -
26.06.2017 09:00:00 13,8 11,9 11 6 SSW 1000,9 10
26.06.2017 08:00:00 - - - - - - -
26.06.2017 07:00:00 - - - - - - -
26.06.2017 06:00:00 12,3 11,6 14 8 S 1001,4 10
26.06.2017 05:00:00 - - - - - - -
26.06.2017 04:00:00 - - - - - - -
26.06.2017 03:00:00 11,9 11,4 11 6 SSW 1001,4 10
26.06.2017 02:00:00 - - - - - - -
26.06.2017 01:00:00 - - - - - - -
26.06.2017 00:00:00 11,9 10,9 7 4 SE 1001,4 -
25.06.2017 23:00:00 - - - - - - -
25.06.2017 22:00:00 - - - - - - -
25.06.2017 21:00:00 14,3 9,5 4 2 SW 1002,4 10
25.06.2017 20:00:00 - - - - - - -
25.06.2017 19:00:00 - - - - - - -
25.06.2017 18:00:00 17,4 7,4 14 8 SW 1003,7 10
25.06.2017 17:00:00 - - - - - - -
25.06.2017 16:00:00 - - - - - - -
25.06.2017 15:00:00 18,4 7,7 18 10 WSW 1003,7 20
25.06.2017 14:00:00 - - - - - - -
25.06.2017 13:00:00 - - - - - - -
25.06.2017 12:00:00 17,8 6,6 22 12 WSW 1003,2 20
25.06.2017 11:00:00 - - - - - - -
25.06.2017 10:00:00 - - - - - - -
25.06.2017 09:00:00 17,1 11,3 14 8 WSW 1002,3 20
25.06.2017 08:00:00 - - - - - - -
25.06.2017 07:00:00 - - - - - - -
25.06.2017 06:00:00 14,5 12,8 11 6 SW 1002,1 10
25.06.2017 05:00:00 - - - - - - -
25.06.2017 04:00:00 - - - - - - -
25.06.2017 03:00:00 15,4 13,7 14 8 SW 1001,6 10
25.06.2017 02:00:00 - - - - - - -
25.06.2017 01:00:00 - - - - - - -
25.06.2017 00:00:00 15,8 13,6 14 8 S 1002,0 10
24.06.2017 23:00:00 - - - - - - -
24.06.2017 22:00:00 - - - - - - -
24.06.2017 21:00:00 15,8 14,1 11 6 S 1002,9 10
24.06.2017 20:00:00 - - - - - - -
24.06.2017 19:00:00 - - - - - - -
24.06.2017 18:00:00 15,5 11,8 11 6 S 1004,0 10
24.06.2017 17:00:00 - - - - - - -
24.06.2017 16:00:00 - - - - - - -
24.06.2017 15:00:00 13,9 8,7 11 6 SE 1005,2 10
24.06.2017 14:00:00 - - - - - - -
24.06.2017 13:00:00 - - - - - - -
24.06.2017 12:00:00 17,1 5,9 7 4 SSE 1005,4 20
24.06.2017 11:00:00 - - - - - - -
24.06.2017 10:00:00 - - - - - - -
24.06.2017 09:00:00 14,5 6,5 4 2 ESE 1006,0 20
24.06.2017 08:00:00 - - - - - - -
24.06.2017 07:00:00 - - - - - - -
24.06.2017 06:00:00 12,2 6,2 7 4 ENE 1007,1 10
24.06.2017 05:00:00 - - - - - - -
24.06.2017 04:00:00 - - - - - - -
24.06.2017 03:00:00 13,0 6,5 4 2 ENE 1008,0 10
24.06.2017 02:00:00 - - - - - - -
24.06.2017 01:00:00 - - - - - - -
24.06.2017 00:00:00 12,3 8,1 4 2 NW 1008,7 10
23.06.2017 23:00:00 - - - - - - -
23.06.2017 22:00:00 - - - - - - -
23.06.2017 21:00:00 14,3 6,6 11 6 NNW 1008,6 20
23.06.2017 20:00:00 - - - - - - -
23.06.2017 19:00:00 - - - - - - -
23.06.2017 18:00:00 15,9 6,0 11 6 NNW 1008,1 20
23.06.2017 17:00:00 - - - - - - -
23.06.2017 16:00:00 - - - - - - -
23.06.2017 15:00:00 17,5 4,4 14 8 NNW 1007,9 20
23.06.2017 14:00:00 - - - - - - -
23.06.2017 13:00:00 - - - - - - -
23.06.2017 12:00:00 17,8 7,5 14 8 NW 1007,4 20

tt = temperature
td = dewpoint
ff = wind speed
dd = wind direction
ppp = reduced air pressure
vv = visibility

Next stations